Voltar ao catálogo

METEOR 1-23 DEB

LostPO
NORAD 35422·DEBRIS·🇷🇺 Russia

Lançado Dec 25, 1975 de Plesetsk Cosmodrome

Loading…

Próximas Passagens (próximas 24 horas)

TLE

ObsoletoSource: Space-Track

Época: Jul 26, 2026, 19:46 UTC

1 35422U 75124D   26207.82364671  .00031159  00000-0  33506-2 0  9997
2 35422  81.2137 245.3772 0006754 237.9273 122.1285 14.88358945115851

Acompanhe METEOR 1-23 DEB em tempo real com AllMySat

Download on the App Store